TimeEDT,TemperatureF,Dew PointF,Humidity,Sea Level PressureIn,VisibilityMPH,Wind Direction,Wind SpeedMPH,Gust SpeedMPH,PrecipitationIn,Events,Conditions,WindDirDegrees,DateUTC
12:16 AM,49.1,43.2,80,30.02,10.0,West,8.1,-,N/A,,Scattered Clouds,280,2013-10-08 04:16:00
12:35 AM,48.7,43.2,81,30.03,10.0,West,4.6,-,N/A,,Scattered Clouds,260,2013-10-08 04:35:00
12:55 AM,48.2,42.8,82,30.03,10.0,West,3.5,-,N/A,,Clear,280,2013-10-08 04:55:00
1:15 AM,47.5,42.4,83,30.04,10.0,West,4.6,-,N/A,,Clear,270,2013-10-08 05:15:00
1:36 AM,47.7,42.6,83,30.05,10.0,Calm,Calm,-,N/A,,Clear,0,2013-10-08 05:36:00
1:55 AM,46.4,42.3,85,30.06,10.0,WSW,3.5,-,N/A,,Clear,250,2013-10-08 05:55:00
2:15 AM,45.7,42.6,89,30.06,10.0,Calm,Calm,-,N/A,,Clear,0,2013-10-08 06:15:00
2:35 AM,43.7,41.7,93,30.07,10.0,Calm,Calm,-,N/A,,Clear,0,2013-10-08 06:35:00
2:55 AM,41.4,40.3,96,30.07,10.0,Calm,Calm,-,N/A,,Clear,0,2013-10-08 06:55:00
3:15 AM,41.4,40.6,97,30.08,10.0,Calm,Calm,-,N/A,,Clear,0,2013-10-08 07:15:00
3:35 AM,40.8,40.3,98,30.09,10.0,Calm,Calm,-,N/A,,Clear,0,2013-10-08 07:35:00
3:56 AM,39.2,38.7,98,30.09,10.0,Calm,Calm,-,N/A,,Clear,0,2013-10-08 07:56:00
4:15 AM,39.2,38.8,99,30.10,10.0,Calm,Calm,-,N/A,,Clear,0,2013-10-08 08:15:00
4:35 AM,38.5,38.1,99,30.11,7.0,Calm,Calm,-,N/A,,Clear,0,2013-10-08 08:35:00
4:56 AM,38.3,38.3,100,30.12,10.0,Calm,Calm,-,N/A,,Clear,0,2013-10-08 08:56:00
5:15 AM,37.8,37.6,99,30.13,10.0,Calm,Calm,-,N/A,,Clear,0,2013-10-08 09:15:00
5:35 AM,37.4,37.4,100,30.13,10.0,Calm,Calm,-,N/A,,Clear,0,2013-10-08 09:35:00
5:56 AM,37.8,37.8,100,30.13,10.0,Calm,Calm,-,N/A,,Clear,0,2013-10-08 09:56:00
6:15 AM,37.4,37.4,100,30.14,10.0,Calm,Calm,-,N/A,,Clear,0,2013-10-08 10:15:00
6:36 AM,36.5,36.5,100,30.14,10.0,Calm,Calm,-,N/A,,Clear,0,2013-10-08 10:36:00
6:55 AM,37.2,37.2,100,30.15,10.0,Calm,Calm,-,N/A,,Clear,0,2013-10-08 10:55:00
7:15 AM,36.7,36.7,100,30.15,10.0,Calm,Calm,-,N/A,,Clear,0,2013-10-08 11:15:00
7:36 AM,36.5,36.5,100,30.16,10.0,Calm,Calm,-,N/A,,Clear,0,2013-10-08 11:36:00
7:55 AM,37.6,37.6,100,30.17,10.0,Calm,Calm,-,N/A,,Clear,0,2013-10-08 11:55:00
8:15 AM,38.3,38.3,100,30.18,10.0,Calm,Calm,-,N/A,,Clear,0,2013-10-08 12:15:00
8:36 AM,41.7,41.7,100,30.18,10.0,South,3.5,-,N/A,,Clear,180,2013-10-08 12:36:00
8:55 AM,46.4,46.4,100,30.19,10.0,South,5.8,-,N/A,,Clear,190,2013-10-08 12:55:00
9:15 AM,50.2,46.9,89,30.20,10.0,South,6.9,-,N/A,,Clear,190,2013-10-08 13:15:00
9:35 AM,52.2,46.6,81,30.20,10.0,South,6.9,-,N/A,,Clear,190,2013-10-08 13:35:00
9:56 AM,53.6,45.3,74,30.20,10.0,South,10.4,-,N/A,,Clear,180,2013-10-08 13:56:00
10:15 AM,54.0,45.3,73,30.20,10.0,South,10.4,-,N/A,,Clear,180,2013-10-08 14:15:00
10:35 AM,54.7,44.8,69,30.20,10.0,South,9.2,-,N/A,,Clear,170,2013-10-08 14:35:00
10:56 AM,55.8,45.0,67,30.21,10.0,South,8.1,-,N/A,,Clear,170,2013-10-08 14:56:00
11:15 AM,55.4,43.9,65,30.21,10.0,South,8.1,-,N/A,,Clear,170,2013-10-08 15:15:00
11:35 AM,56.5,43.3,61,30.21,10.0,SSW,8.1,-,N/A,,Clear,200,2013-10-08 15:35:00
11:55 AM,57.2,44.1,62,30.21,10.0,South,5.8,-,N/A,,Clear,180,2013-10-08 15:55:00
12:15 PM,56.8,43.9,62,30.22,10.0,South,9.2,-,N/A,,Clear,180,2013-10-08 16:15:00
12:36 PM,57.2,43.5,60,30.22,10.0,South,11.5,-,N/A,,Clear,170,2013-10-08 16:36:00
12:55 PM,58.1,43.3,58,30.22,10.0,South,8.1,-,N/A,,Clear,180,2013-10-08 16:55:00
1:15 PM,59.0,42.8,55,30.22,10.0,SSW,9.2,-,N/A,,Clear,200,2013-10-08 17:15:00
1:36 PM,59.4,45.0,59,30.21,10.0,SSE,6.9,-,N/A,,Clear,150,2013-10-08 17:36:00
1:55 PM,59.5,43.9,56,30.20,10.0,SSE,6.9,-,N/A,,Clear,150,2013-10-08 17:55:00
2:15 PM,60.3,45.1,57,30.20,10.0,South,6.9,-,N/A,,Clear,190,2013-10-08 18:15:00
2:36 PM,60.6,44.8,56,30.20,10.0,South,8.1,-,N/A,,Clear,170,2013-10-08 18:36:00
2:55 PM,60.8,43.9,54,30.20,10.0,SSE,8.1,-,N/A,,Clear,160,2013-10-08 18:55:00
3:15 PM,61.0,44.4,54,30.20,10.0,South,9.2,-,N/A,,Clear,170,2013-10-08 19:15:00
3:36 PM,61.2,41.9,49,30.20,10.0,SSE,11.5,-,N/A,,Clear,150,2013-10-08 19:36:00
3:55 PM,61.0,42.6,51,30.19,10.0,South,6.9,-,N/A,,Clear,170,2013-10-08 19:55:00
4:15 PM,61.5,44.2,53,30.19,10.0,SSE,10.4,-,N/A,,Clear,160,2013-10-08 20:15:00
4:35 PM,61.3,44.1,53,30.19,10.0,SSE,11.5,-,N/A,,Clear,150,2013-10-08 20:35:00
4:55 PM,60.3,44.1,55,30.19,10.0,SE,10.4,16.1,N/A,,Clear,140,2013-10-08 20:55:00
5:16 PM,59.9,43.3,54,30.19,10.0,SE,9.2,-,N/A,,Clear,140,2013-10-08 21:16:00
5:35 PM,59.0,45.5,61,30.18,10.0,SE,9.2,17.3,N/A,,Clear,140,2013-10-08 21:35:00
5:55 PM,58.5,46.0,63,30.18,10.0,SE,9.2,-,N/A,,Clear,140,2013-10-08 21:55:00
6:16 PM,57.6,46.8,67,30.18,10.0,SE,6.9,-,N/A,,Clear,140,2013-10-08 22:16:00
6:35 PM,57.0,49.6,76,30.18,10.0,SE,8.1,-,N/A,,Clear,140,2013-10-08 22:35:00
6:55 PM,56.5,50.4,80,30.18,10.0,SSE,6.9,16.1,N/A,,Clear,150,2013-10-08 22:55:00
7:16 PM,56.1,50.9,83,30.18,10.0,SE,8.1,-,N/A,,Clear,140,2013-10-08 23:16:00
7:35 PM,56.3,50.9,82,30.18,10.0,SSE,8.1,-,N/A,,Clear,150,2013-10-08 23:35:00
7:55 PM,56.3,51.4,84,30.17,10.0,SSE,9.2,16.1,N/A,,Clear,150,2013-10-08 23:55:00
8:16 PM,56.3,51.8,85,30.18,10.0,SSE,9.2,16.1,N/A,,Clear,150,2013-10-09 00:16:00
8:35 PM,56.5,52.3,86,30.18,10.0,SSE,9.2,18.4,N/A,,Clear,150,2013-10-09 00:35:00
8:55 PM,56.5,52.5,87,30.18,10.0,SSE,10.4,16.1,N/A,,Clear,150,2013-10-09 00:55:00
9:15 PM,56.8,51.6,83,30.18,10.0,SSE,10.4,-,N/A,,Clear,160,2013-10-09 01:15:00
9:35 PM,57.2,50.5,78,30.18,10.0,South,8.1,-,N/A,,Clear,170,2013-10-09 01:35:00
9:55 PM,57.2,50.2,77,30.19,10.0,South,9.2,-,N/A,,Clear,170,2013-10-09 01:55:00
10:15 PM,57.2,50.2,77,30.18,10.0,SSE,8.1,-,N/A,,Clear,160,2013-10-09 02:15:00
10:35 PM,56.8,50.9,80,30.18,10.0,SSE,9.2,16.1,N/A,,Clear,150,2013-10-09 02:35:00
10:55 PM,56.8,51.4,82,30.18,10.0,South,11.5,-,N/A,,Clear,170,2013-10-09 02:55:00
11:15 PM,57.0,51.8,83,30.17,10.0,South,15.0,23.0,N/A,,Clear,170,2013-10-09 03:15:00
11:36 PM,56.8,52.0,84,30.18,10.0,South,11.5,18.4,N/A,,Clear,170,2013-10-09 03:36:00
11:55 PM,56.8,51.8,83,30.18,10.0,South,10.4,18.4,N/A,,Clear,170,2013-10-09 03:55:00